| time (UTC) | temp F | wind direction | speed MPH | gust MPH | rain 1hr in | rain 24hr in | rain mn in | humidity % | barometer mb |
| 20260504050556 | 59 | 208 | 4.0 | 5.0 | 0.00 | 0.00 | 0.00 | 35 | 1016.3 |
| 20260504045555 | 59 | 192 | 6.0 | 11.0 | 0.00 | 0.00 | 0.00 | 35 | 1016.2 |
| 20260504045055 | 59 | 199 | 4.0 | 7.0 | 0.00 | 0.00 | 0.00 | 36 | 1016.0 |
| 20260504044556 | 60 | 189 | 2.0 | 12.0 | 0.00 | 0.00 | 0.00 | 36 | 1015.9 |
| 20260504044012 | 60 | 152 | 5.0 | 11.0 | 0.00 | 0.00 | 0.00 | 36 | 1016.1 |
| 20260504043555 | 60 | 162 | 7.0 | 11.0 | 0.00 | 0.00 | 0.00 | 36 | 1016.1 |
| 20260504043056 | 60 | 322 | 4.0 | 20.0 | 0.00 | 0.00 | 0.00 | 35 | 1016.0 |
| 20260504041013 | 61 | 194 | 8.0 | 13.0 | 0.00 | 0.00 | 0.00 | 36 | 1015.9 |
| 20260504040555 | 61 | 200 | 7.0 | 7.0 | 0.00 | 0.00 | 0.00 | 36 | 1015.9 |
| 20260504040055 | 61 | 196 | 7.0 | 9.0 | 0.00 | 0.00 | 0.00 | 35 | 1015.9 |
| 20260504035555 | 61 | 212 | 8.0 | 11.0 | 0.00 | 0.00 | 0.00 | 35 | 1015.9 |
| 20260504035055 | 61 | 203 | 8.0 | 9.0 | 0.00 | 0.00 | 0.00 | 35 | 1015.9 |
| 20260504031555 | 63 | 188 | 7.0 | 16.0 | 0.00 | 0.00 | 0.00 | 29 | 1015.4 |
| 20260504031055 | 63 | 187 | 5.0 | 15.0 | 0.00 | 0.00 | 0.00 | 29 | 1015.4 |
| 20260504030556 | 63 | 205 | 6.0 | 12.0 | 0.00 | 0.00 | 0.00 | 28 | 1015.2 |
| 20260504030012 | 63 | 182 | 8.0 | 20.0 | 0.00 | 0.00 | 0.00 | 28 | 1015.0 |
| 20260504025556 | 64 | 220 | 13.0 | 24.0 | 0.00 | 0.00 | 0.00 | 27 | 1015.2 |
| 20260504025056 | 64 | 215 | 15.0 | 22.0 | 0.00 | 0.00 | 0.00 | 27 | 1015.3 |
| 20260504024512 | 64 | 219 | 15.0 | 26.0 | 0.00 | 0.00 | 0.00 | 26 | 1015.1 |
| 20260504024012 | 64 | 211 | 20.0 | 20.0 | 0.00 | 0.00 | 0.00 | 26 | 1015.0 |
| 20260504023556 | 64 | 184 | 7.0 | 21.0 | 0.00 | 0.00 | 0.00 | 26 | 1015.2 |
| 20260504023012 | 64 | 184 | 7.0 | 20.0 | 0.00 | 0.00 | 0.00 | 25 | 1015.2 |
| 20260504022555 | 64 | 187 | 9.0 | 21.0 | 0.00 | 0.00 | 0.00 | 25 | 1015.0 |
| 20260504022056 | 65 | 241 | 8.0 | 23.0 | 0.00 | 0.00 | 0.00 | 24 | 1015.0 |
| 20260504020055 | 66 | 194 | 5.0 | 15.0 | 0.00 | 0.00 | 0.00 | 23 | 1014.6 |
| 20260504015555 | 66 | 207 | 16.0 | 17.0 | 0.00 | 0.00 | 0.00 | 23 | 1014.7 |
| 20260504015013 | 66 | 188 | 11.0 | 17.0 | 0.00 | 0.00 | 0.00 | 22 | 1014.7 |
| 20260504014555 | 67 | 168 | 12.0 | 14.0 | 0.00 | 0.00 | 0.00 | 23 | 1014.6 |
| 20260504014056 | 67 | 172 | 12.0 | 15.0 | 0.00 | 0.00 | 0.00 | 22 | 1014.5 |
| 20260504013555 | 68 | 213 | 7.0 | 15.0 | 0.00 | 0.00 | 0.00 | 22 | 1014.6 |
| 20260504013055 | 68 | 208 | 10.0 | 15.0 | 0.00 | 0.00 | 0.00 | 22 | 1014.7 |
| 20260504012555 | 68 | 218 | 15.0 | 16.0 | 0.00 | 0.00 | 0.00 | 23 | 1014.7 |
| 20260504012013 | 68 | 165 | 7.0 | 18.0 | 0.00 | 0.00 | 0.00 | 23 | 1014.7 |
| 20260504011555 | 68 | 181 | 17.0 | 22.0 | 0.00 | 0.00 | 0.00 | 22 | 1014.9 |
| 20260504011056 | 68 | 181 | 8.0 | 25.0 | 0.00 | 0.00 | 0.00 | 23 | 1014.6 |
| 20260504010512 | 69 | 196 | 15.0 | 17.0 | 0.00 | 0.00 | 0.00 | 22 | 1014.5 |
| 20260504010012 | 69 | 198 | 10.0 | 19.0 | 0.00 | 0.00 | 0.00 | 22 | 1014.7 |
| 20260504005556 | 69 | 150 | 8.0 | 16.0 | 0.00 | 0.00 | 0.00 | 22 | 1015.0 |
| 20260504005012 | 69 | 159 | 12.0 | 24.0 | 0.00 | 0.00 | 0.00 | 23 | 1015.0 |
| 20260504004555 | 69 | 209 | 12.0 | 26.0 | 0.00 | 0.00 | 0.00 | 22 | 1015.0 |
| 20260504004056 | 70 | 153 | 9.0 | 17.0 | 0.00 | 0.00 | 0.00 | 22 | 1014.9 |
| 20260504003556 | 70 | 168 | 10.0 | 17.0 | 0.00 | 0.00 | 0.00 | 21 | 1015.1 |
| 20260504003056 | 70 | 205 | 12.0 | 21.0 | 0.00 | 0.00 | 0.00 | 22 | 1015.2 |
| 20260504002556 | 71 | 204 | 18.0 | 19.0 | 0.00 | 0.00 | 0.00 | 22 | 1015.1 |
| 20260504002056 | 70 | 202 | 10.0 | 24.0 | 0.00 | 0.00 | 0.00 | 23 | 1015.0 |
| 20260504001513 | 70 | 146 | 8.0 | 22.0 | 0.00 | 0.00 | 0.00 | 23 | 1015.1 |
| 20260504001012 | 70 | 138 | 9.0 | 22.0 | 0.00 | 0.00 | 0.00 | 23 | 1015.0 |
| 20260504000555 | 70 | 137 | 17.0 | 31.0 | 0.00 | 0.00 | 0.00 | 22 | 1015.2 |
| 20260504000056 | 70 | 188 | 16.0 | 20.0 | 0.00 | 0.00 | 0.00 | 22 | 1015.1 |
| 20260503235555 | 70 | 257 | 12.0 | 19.0 | 0.00 | 0.00 | 0.00 | 22 | 1015.0 |
| 20260503235055 | 70 | 157 | 6.0 | 23.0 | 0.00 | 0.00 | 0.00 | 22 | 1015.2 |
| 20260503234556 | 71 | 181 | 5.0 | 19.0 | 0.00 | 0.00 | 0.00 | 21 | 1015.1 |
| 20260503234013 | 71 | 201 | 12.0 | 21.0 | 0.00 | 0.00 | 0.00 | 20 | 1015.3 |
| 20260503233555 | 70 | 177 | 11.0 | 27.0 | 0.00 | 0.00 | 0.00 | 21 | 1015.2 |
| 20260503233056 | 70 | 204 | 26.0 | 28.0 | 0.00 | 0.00 | 0.00 | 23 | 1015.1 |
| 20260503232513 | 70 | 225 | 12.0 | 24.0 | 0.00 | 0.00 | 0.00 | 23 | 1015.1 |
| 20260503232012 | 71 | 169 | 12.0 | 22.0 | 0.00 | 0.00 | 0.00 | 22 | 1015.3 |
| 20260503231555 | 70 | 228 | 15.0 | 30.0 | 0.00 | 0.00 | 0.00 | 22 | 1015.1 |
| 20260503231012 | 70 | 180 | 21.0 | 26.0 | 0.00 | 0.00 | 0.00 | 24 | 1015.3 |
| 20260503230555 | 73 | 146 | 13.0 | 16.0 | 0.00 | 0.00 | 0.00 | 22 | 1015.2 |
| 20260503230055 | 72 | 157 | 10.0 | 14.0 | 0.00 | 0.00 | 0.00 | 23 | 1015.1 |
| 20260503225555 | 72 | 207 | 12.0 | 20.0 | 0.00 | 0.00 | 0.00 | 25 | 1015.2 |
| 20260503225013 | 70 | 212 | 8.0 | 25.0 | 0.00 | 0.00 | 0.00 | 25 | 1015.4 |
| 20260503224555 | 72 | 172 | 9.0 | 21.0 | 0.00 | 0.00 | 0.00 | 25 | 1015.3 |
| 20260503224055 | 71 | 103 | 7.0 | 22.0 | 0.00 | 0.00 | 0.00 | 25 | 1015.4 |
| 20260503223555 | 71 | 154 | 8.0 | 18.0 | 0.00 | 0.00 | 0.00 | 25 | 1015.7 |
| 20260503223012 | 73 | 209 | 10.0 | 25.0 | 0.00 | 0.00 | 0.00 | 24 | 1015.6 |
| 20260503222555 | 71 | 177 | 7.0 | 24.0 | 0.00 | 0.00 | 0.00 | 25 | 1015.7 |
| 20260503222056 | 71 | 137 | 11.0 | 21.0 | 0.00 | 0.00 | 0.00 | 25 | 1015.4 |
| 20260503221555 | 72 | 140 | 12.0 | 16.0 | 0.00 | 0.00 | 0.00 | 25 | 1015.8 |
| 20260503221055 | 72 | 132 | 7.0 | 28.0 | 0.00 | 0.00 | 0.00 | 25 | 1015.9 |
| 20260503220556 | 72 | 183 | 12.0 | 21.0 | 0.00 | 0.00 | 0.00 | 25 | 1016.0 |
| 20260503214512 | 72 | 141 | 8.0 | 20.0 | 0.00 | 0.00 | 0.00 | 24 | 1016.1 |
| 20260503214012 | 72 | 153 | 15.0 | 21.0 | 0.00 | 0.00 | 0.00 | 26 | 1016.1 |
| 20260503213536 | 70 | 141 | 5.0 | 23.0 | 0.00 | 0.00 | 0.00 | 27 | 1016.2 |
| 20260503213055 | 71 | 143 | 11.0 | 22.0 | 0.00 | 0.00 | 0.00 | 27 | 1016.3 |
| 20260503212555 | 72 | 147 | 6.0 | 16.0 | 0.00 | 0.00 | 0.00 | 26 | 1016.2 |
| 20260503212056 | 73 | 141 | 2.0 | 13.0 | 0.00 | 0.00 | 0.00 | 26 | 1016.5 |
| 20260503211556 | 71 | 141 | 7.0 | 18.0 | 0.00 | 0.00 | 0.00 | 27 | 1016.5 |
| 20260503211014 | 70 | 189 | 12.0 | 30.0 | 0.00 | 0.00 | 0.00 | 27 | 1017.0 |
| 20260503210555 | 70 | 160 | 7.0 | 17.0 | 0.00 | 0.00 | 0.00 | 27 | 1016.8 |
| 20260503210055 | 72 | 146 | 10.0 | 23.0 | 0.00 | 0.00 | 0.00 | 27 | 1016.7 |
| 20260503205556 | 72 | 186 | 10.0 | 24.0 | 0.00 | 0.00 | 0.00 | 26 | 1016.7 |
| 20260503205013 | 71 | 152 | 13.0 | 20.0 | 0.00 | 0.00 | 0.00 | 26 | 1017.0 |
| 20260503204555 | 71 | 184 | 21.0 | 25.0 | 0.00 | 0.00 | 0.00 | 25 | 1017.0 |
| 20260503204056 | 72 | 207 | 16.0 | 23.0 | 0.00 | 0.00 | 0.00 | 24 | 1017.2 |
| 20260503202012 | 71 | 211 | 10.0 | 23.0 | 0.00 | 0.00 | 0.00 | 25 | 1017.3 |
| 20260503201555 | 71 | 211 | 11.0 | 23.0 | 0.00 | 0.00 | 0.00 | 23 | 1017.0 |
| 20260503201055 | 73 | 176 | 18.0 | 22.0 | 0.00 | 0.00 | 0.00 | 21 | 1017.4 |
| 20260503200512 | 70 | 184 | 6.0 | 29.0 | 0.00 | 0.00 | 0.00 | 26 | 1017.1 |
| 20260503200013 | 71 | 176 | 12.0 | 24.0 | 0.00 | 0.00 | 0.00 | 24 | 1017.1 |
| 20260503195555 | 71 | 184 | 13.0 | 17.0 | 0.00 | 0.00 | 0.00 | 28 | 1017.4 |
| 20260503195013 | 72 | 172 | 14.0 | 22.0 | 0.00 | 0.00 | 0.00 | 26 | 1017.4 |
| 20260503194555 | 70 | 139 | 9.0 | 18.0 | 0.00 | 0.00 | 0.00 | 26 | 1017.7 |
| 20260503194055 | 72 | 196 | 10.0 | 18.0 | 0.00 | 0.00 | 0.00 | 23 | 1017.5 |
| 20260503193555 | 71 | 142 | 6.0 | 30.0 | 0.00 | 0.00 | 0.00 | 25 | 1017.6 |
| 20260503193013 | 72 | 152 | 8.0 | 17.0 | 0.00 | 0.00 | 0.00 | 27 | 1017.7 |
| 20260503192555 | 71 | 201 | 10.0 | 24.0 | 0.00 | 0.00 | 0.00 | 28 | 1017.6 |
| 20260503191013 | 71 | 143 | 5.0 | 28.0 | 0.00 | 0.00 | 0.00 | 26 | 1017.9 |
| 20260503190555 | 71 | 216 | 10.0 | 26.0 | 0.00 | 0.00 | 0.00 | 27 | 1017.9 |
| 20260503190055 | 71 | 129 | 17.0 | 21.0 | 0.00 | 0.00 | 0.00 | 28 | 1018.0 |
| 20260503185555 | 71 | 130 | 9.0 | 24.0 | 0.00 | 0.00 | 0.00 | 28 | 1017.8 |
| 20260503185055 | 71 | 129 | 13.0 | 26.0 | 0.00 | 0.00 | 0.00 | 28 | 1018.0 |
| 20260503184556 | 71 | 193 | 13.0 | 23.0 | 0.00 | 0.00 | 0.00 | 31 | 1017.9 |
| 20260503182513 | 71 | 153 | 8.0 | 13.0 | 0.00 | 0.00 | 0.00 | 31 | 1017.9 |
| 20260503182013 | 69 | 174 | 9.0 | 12.0 | 0.00 | 0.00 | 0.00 | 33 | 1018.0 |
| 20260503181555 | 69 | 116 | 9.0 | 12.0 | 0.00 | 0.00 | 0.00 | 34 | 1018.1 |
| 20260503175555 | 70 | 101 | 10.0 | 12.0 | 0.00 | 0.00 | 0.00 | 31 | 1018.0 |
| 20260503175013 | 71 | 123 | 12.0 | 18.0 | 0.00 | 0.00 | 0.00 | 32 | 1018.0 |
| 20260503174556 | 70 | 72 | 5.0 | 19.0 | 0.00 | 0.00 | 0.00 | 32 | 1018.0 |
| 20260503174056 | 70 | 92 | 7.0 | 18.0 | 0.00 | 0.00 | 0.00 | 34 | 1018.0 |
| 20260503173556 | 71 | 91 | 5.0 | 9.0 | 0.00 | 0.00 | 0.00 | 32 | 1018.1 |
| 20260503173012 | 70 | 139 | 4.0 | 17.0 | 0.00 | 0.00 | 0.00 | 33 | 1018.2 |
| 20260503172555 | 70 | 95 | 5.0 | 14.0 | 0.00 | 0.00 | 0.00 | 33 | 1018.1 |
| 20260503172056 | 69 | 127 | 10.0 | 22.0 | 0.00 | 0.00 | 0.00 | 35 | 1018.1 |
| 20260503171555 | 70 | 63 | 6.0 | 15.0 | 0.00 | 0.00 | 0.00 | 34 | 1018.0 |
| 20260503171056 | 69 | 135 | 6.0 | 18.0 | 0.00 | 0.00 | 0.00 | 34 | 1018.1 |
| 20260503170555 | 69 | 131 | 11.0 | 12.0 | 0.00 | 0.00 | 0.00 | 35 | 1018.4 |
| 20260503150512 | 66 | 127 | 5.0 | 6.0 | 0.00 | 0.00 | 0.00 | 39 | 1018.5 |
| 20260503131013 | 57 | 124 | 4.0 | 9.0 | 0.00 | 0.00 | 0.00 | 38 | 1018.1 |
| 20260503130555 | 56 | 112 | 5.0 | 9.0 | 0.00 | 0.00 | 0.00 | 38 | 1018.0 |
| 20260503081555 | 59 | 197 | 6.0 | 7.0 | 0.00 | 0.00 | 0.00 | 31 | 1018.9 |
| 20260503081014 | 59 | 205 | 5.0 | 6.0 | 0.00 | 0.00 | 0.00 | 32 | 1019.2 |
| 20260503080555 | 59 | 203 | 4.0 | 9.0 | 0.00 | 0.00 | 0.00 | 32 | 1018.7 |
| 20260503072555 | 58 | 209 | 6.0 | 6.0 | 0.00 | 0.00 | 0.00 | 34 | 1019.0 |
| 20260503072056 | 58 | 164 | 3.0 | 6.0 | 0.00 | 0.00 | 0.00 | 34 | 1019.3 |
| 20260503071555 | 58 | 188 | 6.0 | 7.0 | 0.00 | 0.00 | 0.00 | 34 | 1019.2 |
| 20260503071055 | 57 | 177 | 3.0 | 4.0 | 0.00 | 0.00 | 0.00 | 35 | 1019.2 |
| 20260503070556 | 57 | 148 | 0.0 | 4.0 | 0.00 | 0.00 | 0.00 | 35 | 1019.0 |